| time (UTC) | temp F | wind direction | speed MPH | gust MPH | rain 1hr in | rain 24hr in | rain mn in | humidity % | barometer mb |
| 20260504035120 | 37 | 226 | 0.0 | 0.0 | 0.00 | 0.21 | 0.20 | 83 | 1014.0 |
| 20260504034634 | 37 | 226 | 0.0 | 0.0 | 0.00 | 0.21 | 0.20 | 83 | 1014.0 |
| 20260504034143 | 38 | 226 | 0.0 | 0.0 | 0.00 | 0.21 | 0.20 | 83 | 1014.0 |
| 20260504033656 | 38 | 226 | 0.0 | 2.0 | 0.00 | 0.21 | 0.20 | 83 | 1014.1 |
| 20260504033122 | 38 | 226 | 0.0 | 2.0 | 0.00 | 0.21 | 0.20 | 83 | 1014.0 |
| 20260504032637 | 38 | 226 | 0.0 | 0.0 | 0.00 | 0.21 | 0.20 | 83 | 1014.0 |
| 20260504032142 | 38 | 226 | 0.0 | 0.0 | 0.00 | 0.21 | 0.20 | 82 | 1014.0 |
| 20260504031615 | 38 | 226 | 0.0 | 0.0 | 0.00 | 0.21 | 0.20 | 82 | 1014.0 |
| 20260504031131 | 38 | 226 | 0.0 | 2.0 | 0.00 | 0.21 | 0.20 | 82 | 1013.9 |
| 20260504030618 | 38 | 226 | 1.0 | 3.0 | 0.00 | 0.22 | 0.20 | 82 | 1013.9 |
| 20260504030132 | 38 | 226 | 0.0 | 3.0 | 0.00 | 0.22 | 0.20 | 82 | 1013.9 |
| 20260504025620 | 38 | 226 | 1.0 | 3.0 | 0.00 | 0.22 | 0.20 | 82 | 1013.9 |
| 20260504025135 | 39 | 226 | 2.0 | 3.0 | 0.00 | 0.22 | 0.20 | 82 | 1013.9 |
| 20260504024622 | 39 | 226 | 1.0 | 2.0 | 0.00 | 0.22 | 0.20 | 81 | 1013.9 |
| 20260504024117 | 39 | 227 | 0.0 | 2.0 | 0.00 | 0.22 | 0.20 | 81 | 1014.0 |
| 20260504023630 | 39 | 227 | 0.0 | 0.0 | 0.00 | 0.22 | 0.20 | 80 | 1014.0 |
| 20260504023118 | 40 | 227 | 0.0 | 0.0 | 0.00 | 0.22 | 0.20 | 80 | 1013.9 |
| 20260504022633 | 40 | 227 | 0.0 | 0.0 | 0.00 | 0.22 | 0.20 | 79 | 1013.9 |
| 20260504022140 | 40 | 227 | 0.0 | 0.0 | 0.00 | 0.22 | 0.20 | 79 | 1013.9 |
| 20260504021626 | 40 | 227 | 0.0 | 0.0 | 0.00 | 0.22 | 0.20 | 79 | 1013.9 |
| 20260504021159 | 41 | 227 | 0.0 | 0.0 | 0.00 | 0.22 | 0.20 | 78 | 1013.9 |
| 20260504020645 | 41 | 227 | 0.0 | 0.0 | 0.00 | 0.22 | 0.20 | 77 | 1013.8 |
| 20260504020158 | 41 | 227 | 0.0 | 0.0 | 0.00 | 0.22 | 0.20 | 77 | 1013.9 |
| 20260504015624 | 41 | 227 | 0.0 | 0.0 | 0.00 | 0.22 | 0.20 | 77 | 1013.8 |
| 20260504015136 | 42 | 227 | 0.0 | 0.0 | 0.00 | 0.22 | 0.20 | 76 | 1013.8 |
| 20260504014623 | 42 | 227 | 0.0 | 0.0 | 0.00 | 0.22 | 0.20 | 75 | 1013.8 |
| 20260504014138 | 42 | 227 | 0.0 | 0.0 | 0.00 | 0.22 | 0.20 | 74 | 1013.8 |
| 20260504013630 | 43 | 227 | 0.0 | 0.0 | 0.00 | 0.22 | 0.20 | 74 | 1013.8 |
| 20260504013119 | 43 | 227 | 0.0 | 2.0 | 0.00 | 0.22 | 0.20 | 73 | 1013.7 |
| 20260504012635 | 43 | 227 | 0.0 | 2.0 | 0.00 | 0.22 | 0.20 | 72 | 1013.6 |
| 20260504012122 | 44 | 228 | 0.0 | 3.0 | 0.00 | 0.22 | 0.20 | 70 | 1013.6 |
| 20260504011636 | 44 | 228 | 1.0 | 3.0 | 0.00 | 0.22 | 0.20 | 69 | 1013.6 |
| 20260504011144 | 45 | 228 | 0.0 | 4.0 | 0.00 | 0.22 | 0.20 | 67 | 1013.5 |
| 20260504010616 | 46 | 228 | 1.0 | 4.0 | 0.00 | 0.22 | 0.20 | 65 | 1013.5 |
| 20260504010131 | 46 | 228 | 1.0 | 3.0 | 0.00 | 0.22 | 0.20 | 64 | 1013.5 |
| 20260504005621 | 47 | 227 | 0.0 | 2.0 | 0.00 | 0.22 | 0.20 | 61 | 1013.5 |
| 20260504005135 | 48 | 228 | 0.0 | 4.0 | 0.00 | 0.22 | 0.20 | 58 | 1013.5 |
| 20260504004644 | 49 | 226 | 2.0 | 4.0 | 0.00 | 0.22 | 0.20 | 56 | 1013.6 |
| 20260504004117 | 50 | 227 | 2.0 | 5.0 | 0.00 | 0.22 | 0.20 | 54 | 1013.4 |
| 20260504003652 | 50 | 214 | 1.0 | 4.0 | 0.00 | 0.22 | 0.20 | 52 | 1013.3 |
| 20260504003119 | 51 | 214 | 1.0 | 6.0 | 0.00 | 0.22 | 0.20 | 51 | 1013.3 |
| 20260504002633 | 51 | 214 | 2.0 | 6.0 | 0.00 | 0.22 | 0.20 | 50 | 1013.3 |
| 20260504002119 | 51 | 214 | 1.0 | 3.0 | 0.00 | 0.22 | 0.20 | 50 | 1013.3 |
| 20260504001633 | 52 | 214 | 1.0 | 5.0 | 0.00 | 0.22 | 0.20 | 49 | 1013.3 |
| 20260504001142 | 52 | 216 | 3.0 | 7.0 | 0.00 | 0.22 | 0.20 | 48 | 1013.3 |
| 20260504000655 | 53 | 219 | 4.0 | 7.0 | 0.00 | 0.22 | 0.20 | 48 | 1013.3 |
| 20260504000120 | 53 | 222 | 4.0 | 7.0 | 0.00 | 0.22 | 0.20 | 46 | 1013.3 |
| 20260503235656 | 54 | 241 | 3.0 | 7.0 | 0.00 | 0.22 | 0.20 | 45 | 1013.3 |
| 20260503235121 | 54 | 205 | 1.0 | 10.0 | 0.00 | 0.22 | 0.20 | 44 | 1013.2 |
| 20260503234636 | 54 | 234 | 3.0 | 10.0 | 0.00 | 0.22 | 0.20 | 44 | 1013.2 |
| 20260503234125 | 55 | 222 | 3.0 | 7.0 | 0.01 | 0.22 | 0.20 | 43 | 1013.2 |
| 20260503233618 | 55 | 224 | 4.0 | 12.0 | 0.01 | 0.22 | 0.20 | 42 | 1013.2 |
| 20260503233132 | 55 | 248 | 8.0 | 15.0 | 0.01 | 0.22 | 0.20 | 41 | 1013.1 |
| 20260503232620 | 56 | 232 | 7.0 | 15.0 | 0.01 | 0.22 | 0.20 | 42 | 1013.2 |
| 20260503232114 | 56 | 232 | 5.0 | 13.0 | 0.01 | 0.22 | 0.20 | 42 | 1013.1 |
| 20260503231644 | 56 | 247 | 3.0 | 14.0 | 0.01 | 0.22 | 0.20 | 41 | 1013.1 |
| 20260503231119 | 56 | 234 | 4.0 | 12.0 | 0.01 | 0.22 | 0.20 | 42 | 1013.1 |
| 20260503230632 | 57 | 210 | 8.0 | 12.0 | 0.01 | 0.22 | 0.20 | 40 | 1013.0 |
| 20260503230124 | 57 | 224 | 6.0 | 12.0 | 0.01 | 0.22 | 0.20 | 40 | 1013.0 |
| 20260503225619 | 57 | 231 | 1.0 | 9.0 | 0.01 | 0.22 | 0.20 | 41 | 1013.1 |
| 20260503225153 | 57 | 211 | 3.0 | 13.0 | 0.01 | 0.22 | 0.20 | 41 | 1013.2 |
| 20260503224620 | 57 | 259 | 7.0 | 16.0 | 0.01 | 0.22 | 0.20 | 41 | 1013.1 |
| 20260503224156 | 57 | 237 | 10.0 | 16.0 | 0.00 | 0.21 | 0.19 | 41 | 1013.0 |
| 20260503223622 | 57 | 235 | 3.0 | 10.0 | 0.00 | 0.21 | 0.19 | 41 | 1013.0 |
| 20260503223137 | 56 | 237 | 5.0 | 17.0 | 0.00 | 0.21 | 0.19 | 42 | 1013.1 |
| 20260503222624 | 57 | 225 | 9.0 | 21.0 | 0.00 | 0.21 | 0.19 | 39 | 1013.1 |
| 20260503222116 | 57 | 227 | 12.0 | 21.0 | 0.00 | 0.21 | 0.19 | 39 | 1013.2 |
| 20260503221631 | 58 | 274 | 9.0 | 16.0 | 0.00 | 0.21 | 0.19 | 38 | 1013.1 |
| 20260503221120 | 57 | 238 | 4.0 | 11.0 | 0.00 | 0.21 | 0.19 | 39 | 1013.1 |
| 20260503220634 | 57 | 230 | 4.0 | 11.0 | 0.00 | 0.21 | 0.19 | 41 | 1013.1 |
| 20260503220142 | 57 | 261 | 6.0 | 10.0 | 0.00 | 0.21 | 0.19 | 40 | 1013.2 |
| 20260503215657 | 57 | 276 | 4.0 | 15.0 | 0.00 | 0.21 | 0.19 | 41 | 1013.3 |
| 20260503215122 | 57 | 223 | 9.0 | 19.0 | 0.00 | 0.21 | 0.19 | 41 | 1013.3 |
| 20260503214615 | 57 | 229 | 12.0 | 19.0 | 0.00 | 0.21 | 0.19 | 40 | 1013.4 |
| 20260503214126 | 57 | 263 | 7.0 | 19.0 | 0.00 | 0.21 | 0.19 | 39 | 1013.3 |
| 20260503213640 | 58 | 264 | 10.0 | 19.0 | 0.00 | 0.21 | 0.19 | 39 | 1013.3 |
| 20260503213145 | 57 | 224 | 8.0 | 17.0 | 0.00 | 0.21 | 0.19 | 40 | 1013.2 |
| 20260503212620 | 56 | 196 | 10.0 | 17.0 | 0.00 | 0.21 | 0.19 | 41 | 1013.3 |
| 20260503212134 | 56 | 216 | 9.0 | 17.0 | 0.00 | 0.21 | 0.19 | 40 | 1013.3 |
| 20260503211622 | 56 | 297 | 5.0 | 11.0 | 0.00 | 0.21 | 0.19 | 40 | 1013.3 |
| 20260503211157 | 56 | 222 | 4.0 | 16.0 | 0.00 | 0.21 | 0.19 | 40 | 1013.2 |
| 20260503210643 | 57 | 241 | 10.0 | 16.0 | 0.00 | 0.21 | 0.19 | 40 | 1013.2 |
| 20260503210135 | 58 | 289 | 7.0 | 16.0 | 0.01 | 0.21 | 0.19 | 41 | 1013.3 |
| 20260503205624 | 57 | 289 | 8.0 | 16.0 | 0.01 | 0.21 | 0.19 | 42 | 1013.3 |
| 20260503205137 | 56 | 225 | 5.0 | 11.0 | 0.01 | 0.21 | 0.19 | 43 | 1013.3 |
| 20260503204631 | 56 | 273 | 3.0 | 20.0 | 0.01 | 0.21 | 0.19 | 43 | 1013.3 |
| 20260503204119 | 56 | 263 | 9.0 | 20.0 | 0.01 | 0.21 | 0.19 | 41 | 1013.4 |
| 20260503203633 | 56 | 279 | 7.0 | 17.0 | 0.01 | 0.21 | 0.19 | 40 | 1013.4 |
| 20260503203119 | 57 | 274 | 8.0 | 17.0 | 0.01 | 0.21 | 0.19 | 42 | 1013.4 |
| 20260503202633 | 57 | 263 | 8.0 | 20.0 | 0.01 | 0.21 | 0.19 | 39 | 1013.4 |
| 20260503202118 | 57 | 225 | 10.0 | 21.0 | 0.01 | 0.21 | 0.19 | 38 | 1013.4 |
| 20260503201648 | 57 | 239 | 10.0 | 20.0 | 0.01 | 0.21 | 0.19 | 40 | 1013.6 |
| 20260503201123 | 57 | 255 | 6.0 | 20.0 | 0.01 | 0.21 | 0.19 | 41 | 1013.6 |
| 20260503200639 | 57 | 233 | 7.0 | 15.0 | 0.01 | 0.21 | 0.19 | 41 | 1013.7 |
| 20260503200124 | 56 | 292 | 11.0 | 15.0 | 0.00 | 0.20 | 0.18 | 43 | 1013.7 |
| 20260503195638 | 56 | 291 | 8.0 | 17.0 | 0.00 | 0.20 | 0.18 | 41 | 1013.8 |
| 20260503195124 | 57 | 248 | 6.0 | 17.0 | 0.00 | 0.20 | 0.18 | 40 | 1013.8 |
| 20260503194619 | 57 | 266 | 8.0 | 19.0 | 0.00 | 0.20 | 0.18 | 39 | 1013.9 |
| 20260503194136 | 57 | 233 | 12.0 | 20.0 | 0.00 | 0.20 | 0.18 | 40 | 1013.9 |
| 20260503193622 | 56 | 282 | 8.0 | 20.0 | 0.00 | 0.20 | 0.18 | 40 | 1013.9 |
| 20260503193158 | 57 | 266 | 11.0 | 20.0 | 0.00 | 0.20 | 0.18 | 40 | 1014.1 |
| 20260503192623 | 57 | 278 | 9.0 | 17.0 | 0.00 | 0.20 | 0.18 | 41 | 1014.1 |
| 20260503192135 | 57 | 234 | 10.0 | 17.0 | 0.00 | 0.20 | 0.18 | 39 | 1014.1 |
| 20260503191622 | 56 | 248 | 9.0 | 16.0 | 0.01 | 0.20 | 0.18 | 43 | 1014.3 |
| 20260503191119 | 55 | 248 | 8.0 | 16.0 | 0.01 | 0.20 | 0.18 | 42 | 1014.2 |
| 20260503190632 | 56 | 272 | 7.0 | 16.0 | 0.01 | 0.21 | 0.18 | 42 | 1014.2 |
| 20260503190118 | 56 | 289 | 10.0 | 16.0 | 0.01 | 0.21 | 0.18 | 41 | 1014.3 |
| 20260503185633 | 56 | 287 | 7.0 | 15.0 | 0.01 | 0.21 | 0.18 | 45 | 1014.3 |
| 20260503185120 | 56 | 226 | 7.0 | 15.0 | 0.01 | 0.21 | 0.18 | 41 | 1014.4 |
| 20260503184634 | 57 | 293 | 8.0 | 14.0 | 0.01 | 0.21 | 0.18 | 47 | 1014.5 |
| 20260503184143 | 56 | 279 | 5.0 | 12.0 | 0.01 | 0.21 | 0.18 | 46 | 1014.6 |
| 20260503183635 | 55 | 304 | 6.0 | 15.0 | 0.01 | 0.21 | 0.18 | 44 | 1014.6 |
| 20260503183123 | 55 | 284 | 8.0 | 19.0 | 0.01 | 0.21 | 0.18 | 41 | 1014.7 |
| 20260503182619 | 55 | 257 | 11.0 | 25.0 | 0.01 | 0.21 | 0.18 | 42 | 1014.8 |
| 20260503182134 | 55 | 270 | 12.0 | 20.0 | 0.01 | 0.21 | 0.18 | 44 | 1014.8 |
| 20260503181623 | 56 | 18 | 7.0 | 14.0 | 0.00 | 0.20 | 0.17 | 44 | 1014.6 |
| 20260503181119 | 55 | 307 | 7.0 | 17.0 | 0.00 | 0.20 | 0.17 | 42 | 1014.7 |
| 20260503180652 | 55 | 293 | 11.0 | 18.0 | 0.00 | 0.20 | 0.17 | 43 | 1014.8 |
| 20260503180125 | 55 | 288 | 11.0 | 20.0 | 0.01 | 0.20 | 0.17 | 48 | 1015.0 |
| 20260503175619 | 54 | 255 | 10.0 | 20.0 | 0.01 | 0.20 | 0.17 | 48 | 1014.9 |
| 20260503175133 | 54 | 233 | 10.0 | 19.0 | 0.01 | 0.20 | 0.17 | 46 | 1015.1 |
| 20260503174642 | 54 | 220 | 11.0 | 19.0 | 0.01 | 0.20 | 0.17 | 45 | 1015.0 |
| 20260503174157 | 54 | 246 | 10.0 | 21.0 | 0.01 | 0.20 | 0.17 | 45 | 1015.1 |
| 20260503173621 | 54 | 275 | 11.0 | 21.0 | 0.01 | 0.20 | 0.17 | 47 | 1015.1 |
| 20260503173135 | 54 | 243 | 10.0 | 17.0 | 0.01 | 0.20 | 0.17 | 45 | 1015.0 |
| 20260503172624 | 54 | 212 | 9.0 | 22.0 | 0.01 | 0.20 | 0.17 | 46 | 1015.0 |
| 20260503172118 | 54 | 232 | 16.0 | 22.0 | 0.01 | 0.20 | 0.17 | 44 | 1015.0 |
| 20260503171633 | 54 | 314 | 6.0 | 24.0 | 0.01 | 0.20 | 0.17 | 49 | 1015.1 |
| 20260503171142 | 53 | 241 | 11.0 | 24.0 | 0.01 | 0.20 | 0.17 | 50 | 1015.1 |
| 20260503170634 | 53 | 300 | 9.0 | 20.0 | 0.01 | 0.20 | 0.17 | 47 | 1015.1 |
| 20260503170120 | 53 | 289 | 10.0 | 20.0 | 0.01 | 0.19 | 0.16 | 47 | 1015.3 |
| 20260503160155 | 51 | 279 | 7.0 | 19.0 | 0.01 | 0.18 | 0.15 | 49 | 1015.9 |
| 20260503150638 | 48 | 306 | 7.0 | 15.0 | 0.02 | 0.17 | 0.14 | 50 | 1016.2 |
| 20260503150132 | 48 | 222 | 9.0 | 17.0 | 0.02 | 0.17 | 0.14 | 51 | 1016.2 |
| 20260503140132 | 46 | 255 | 6.0 | 15.0 | 0.03 | 0.16 | 0.12 | 57 | 1016.3 |
| 20260503131119 | 44 | 272 | 4.0 | 18.0 | 0.04 | 0.13 | 0.09 | 66 | 1016.5 |
| 20260503130653 | 44 | 272 | 7.0 | 20.0 | 0.05 | 0.13 | 0.09 | 68 | 1016.5 |
| 20260503130117 | 43 | 203 | 11.0 | 19.0 | 0.05 | 0.13 | 0.09 | 68 | 1016.4 |
| 20260503120137 | 40 | 252 | 8.0 | 15.0 | 0.04 | 0.08 | 0.04 | 75 | 1016.1 |
| 20260503110626 | 33 | 210 | 0.0 | 3.0 | 0.00 | 0.04 | 0.00 | 88 | 1015.8 |
| 20260503110120 | 32 | 210 | 1.0 | 3.0 | 0.00 | 0.04 | 0.00 | 88 | 1015.7 |
| 20260503100134 | 29 | 225 | 2.0 | 4.0 | 0.00 | 0.04 | 0.00 | 88 | 1015.1 |
| 20260503090138 | 29 | 205 | 1.0 | 4.0 | 0.01 | 0.04 | 0.04 | 87 | 1015.0 |
| 20260503081629 | 31 | 239 | 2.0 | 4.0 | 0.00 | 0.03 | 0.03 | 86 | 1014.8 |
| 20260503081141 | 32 | 268 | 0.0 | 4.0 | 0.00 | 0.03 | 0.03 | 86 | 1014.8 |
| 20260503080620 | 32 | 295 | 1.0 | 8.0 | 0.00 | 0.04 | 0.03 | 86 | 1014.8 |
| 20260503080132 | 32 | 297 | 3.0 | 8.0 | 0.00 | 0.04 | 0.03 | 86 | 1014.7 |
| 20260503072622 | 33 | 264 | 0.0 | 5.0 | 0.00 | 0.04 | 0.03 | 84 | 1014.4 |
| 20260503072137 | 34 | 287 | 1.0 | 11.0 | 0.00 | 0.04 | 0.03 | 84 | 1014.4 |
| 20260503071623 | 34 | 253 | 2.0 | 11.0 | 0.00 | 0.04 | 0.03 | 85 | 1014.4 |
| 20260503071118 | 34 | 302 | 1.0 | 12.0 | 0.00 | 0.04 | 0.03 | 85 | 1014.4 |
| 20260503070632 | 33 | 222 | 4.0 | 10.0 | 0.00 | 0.04 | 0.03 | 86 | 1014.4 |
| 20260503070139 | 32 | 291 | 3.0 | 6.0 | 0.00 | 0.04 | 0.03 | 86 | 1014.3 |
| 20260503060122 | 35 | 276 | 1.0 | 2.0 | 0.00 | 0.04 | 0.03 | 84 | 1014.4 |
| 20260503055124 | 34 | 276 | 2.0 | 10.0 | 0.00 | 0.04 | 0.03 | 86 | 1014.4 |
| 20260503054638 | 33 | 285 | 2.0 | 6.0 | 0.00 | 0.04 | 0.03 | 86 | 1014.4 |
| 20260503054133 | 33 | 282 | 1.0 | 5.0 | 0.00 | 0.04 | 0.03 | 86 | 1014.4 |
| 20260503053619 | 33 | 280 | 1.0 | 5.0 | 0.00 | 0.04 | 0.03 | 86 | 1014.4 |
| 20260503053132 | 33 | 258 | 0.0 | 4.0 | 0.00 | 0.04 | 0.03 | 85 | 1014.4 |
| 20260503052622 | 33 | 249 | 1.0 | 4.0 | 0.00 | 0.04 | 0.03 | 85 | 1014.4 |
| 20260503052134 | 33 | 249 | 1.0 | 4.0 | 0.00 | 0.04 | 0.03 | 85 | 1014.5 |
| 20260503051621 | 34 | 245 | 2.0 | 4.0 | 0.00 | 0.04 | 0.03 | 85 | 1014.5 |
| 20260503051157 | 34 | 246 | 2.0 | 4.0 | 0.00 | 0.04 | 0.03 | 85 | 1014.5 |
| 20260503050623 | 34 | 245 | 2.0 | 5.0 | 0.00 | 0.05 | 0.03 | 85 | 1014.6 |
| 20260503050117 | 34 | 246 | 3.0 | 5.0 | 0.00 | 0.05 | 0.03 | 85 | 1014.6 |
| 20260503045633 | 34 | 229 | 3.0 | 5.0 | 0.00 | 0.05 | 0.03 | 85 | 1014.6 |
| 20260503045121 | 34 | 266 | 2.0 | 4.0 | 0.00 | 0.05 | 0.03 | 84 | 1014.7 |
| 20260503044630 | 34 | 266 | 2.0 | 6.0 | 0.00 | 0.05 | 0.03 | 84 | 1014.7 |
| 20260503044123 | 34 | 268 | 1.0 | 6.0 | 0.00 | 0.05 | 0.03 | 83 | 1014.8 |
| 20260503043617 | 35 | 266 | 2.0 | 4.0 | 0.00 | 0.05 | 0.03 | 82 | 1014.8 |
| 20260503043131 | 35 | 273 | 0.0 | 3.0 | 0.00 | 0.05 | 0.03 | 81 | 1014.8 |
| 20260503042628 | 35 | 273 | 1.0 | 3.0 | 0.00 | 0.05 | 0.03 | 81 | 1014.7 |
| 20260503042122 | 36 | 273 | 0.0 | 3.0 | 0.00 | 0.05 | 0.03 | 80 | 1014.8 |
| 20260503041616 | 36 | 273 | 1.0 | 3.0 | 0.00 | 0.05 | 0.03 | 78 | 1014.7 |
| 20260503041131 | 37 | 274 | 1.0 | 6.0 | 0.00 | 0.05 | 0.03 | 78 | 1014.8 |
| 20260503040624 | 37 | 274 | 2.0 | 6.0 | 0.00 | 0.05 | 0.03 | 77 | 1014.8 |
| 20260503040117 | 38 | 297 | 1.0 | 4.0 | 0.00 | 0.05 | 0.03 | 76 | 1014.7 |
| 20260503035626 | 38 | 298 | 1.0 | 4.0 | 0.01 | 0.05 | 0.03 | 76 | 1014.7 |